Location: Hackbridge
(51.3833°N, 0.1500°W)
Time: 04:16:57
(UTC+00:00)

Cosmos 2278 Rocket - Pass Details

Date: 13 October 2019
Orbit: 840 x 847 km, 71.0° (Epoch: 17 November)

Event Time Altitude Azimuth Distance (km) Brightness Sun altitude
Rises 20:34:32 0° 219° (SW) 3,394 5.4 -31.4°
Reaches altitude 10° 20:37:00 10° 223° (SW) 2,464 4.7 -31.7°
Enters shadow 20:39:44 29° 232° (SW) 1,502 3.6 -32.1°
Exits shadow 20:49:42 - 29° (NNE) 3,019 5.1 -33.4°
Sets 20:50:46 0° 30° (NNE) 3,421 5.4 -33.5°
